Flag for United Kingdom Weather past 2 weeks in Birmingham, England, United Kingdom

Now
48 °F

Passing clouds.


Feels Like: 46 °F
Forecast: 42 / 59 °F
Wind: 5 mph from Southeast

Location: Birmingham / Airport


UV Index: 3 (Moderate)

Visibility: N/A


Pressure: 30.07 "Hg

Humidity: 94%

Dew point: 46 °F

Location of BirminghamLocation

Historic Weather in Birmingham

°F

Birmingham temperature yesterday

Maximum temperature yesterday: 59 °F (at 11:20 AM)
Minimum temperature yesterday: 43 °F (at 4:50 AM)
Average temperature yesterday: 51 °F

Past Weeks' High & Low Weather Summary

 TemperatureHumidityPressure
High64 °F (Apr 21, 3:20 PM)100% (Apr 12, 1:50 AM)30.45 "Hg (Apr 12, 1:50 AM)
Low30 °F (Apr 15, 5:50 AM)44% (Apr 15, 4:20 PM)29.62 "Hg (Apr 20, 5:20 PM)
Average49 °F75%30.09 "Hg
* Reported Apr 8 11:20 PM — Apr 23 11:20 PM, Birmingham, Weather by CustomWeather, © 2014

Note: Actual official high and low records may vary slightly from our data, if they occured in-between our weather recording intervals... More about our weather records

Advertising

Historic Weather Conditions — Data for Previous 24 hours

 ConditionsComfort  
Time TempWeatherWind HumidityBarometerVisibility
11:20 PM
Apr 23
48 °FPassing clouds.5 mph94%30.07 "HgN/A
10:50 PM48 °FPassing clouds.5 mph94%30.07 "HgN/A
10:20 PM48 °FPassing clouds.6 mph94%30.07 "HgN/A
9:50 PM50 °FClear.7 mph88%30.07 "Hg10 mi
9:20 PM50 °FClear.3 mph88%30.07 "Hg10 mi
8:50 PM50 °FLight rain. Passing clouds.3 mph88%30.07 "HgN/A
8:20 PM50 °FLight rain. Passing clouds.5 mph94%30.04 "HgN/A
7:50 PM52 °FLight rain. Scattered clouds.5 mph94%30.04 "Hg6 mi
7:20 PM52 °FLight rain. Broken clouds.5 mph94%30.04 "HgN/A
6:50 PM54 °FScattered showers. Passing clouds.7 mph88%30.01 "Hg5 mi
6:20 PM54 °FLight rain. Scattered clouds.9 mph94%30.01 "Hg5 mi
5:50 PM54 °FLight rain. Scattered clouds.8 mph94%30.01 "Hg4 mi
5:20 PM54 °FLight rain. Mostly cloudy.12 mph94%30.01 "Hg5 mi
4:50 PM54 °FScattered showers. Broken clouds.9 mph88%30.01 "Hg4 mi
4:20 PM54 °FScattered showers. Scattered clouds.12 mph88%30.01 "HgN/A
3:50 PM54 °FScattered showers. Broken clouds.12 mph88%30.01 "Hg4 mi
3:20 PM57 °FLight rain. Mostly cloudy.15 mph72%30.01 "Hg6 mi
2:50 PM57 °FMostly cloudy.14 mph72%30.01 "HgN/A
2:20 PM57 °FPartly sunny.15 mph72%30.01 "HgN/A
1:50 PM57 °FLight rain. Partly sunny.15 mph72%30.01 "HgN/A
1:20 PM57 °FLight rain. Passing clouds.16 mph72%30.01 "HgN/A
12:50 PM57 °FPassing clouds.16 mph72%30.01 "HgN/A
12:20 PM59 °FPassing clouds.17 mph63%29.98 "HgN/A
11:50 AM59 °FPassing clouds.14 mph63%29.98 "HgN/A
11:20 AM59 °FScattered clouds.15 mph68%29.98 "HgN/A
10:50 AM57 °FScattered clouds.13 mph77%29.98 "HgN/A
10:20 AM55 °FScattered clouds.14 mph82%29.98 "HgN/A
9:50 AM54 °FScattered clouds.12 mph88%29.98 "HgN/A
9:20 AM52 °FSunny.12 mph88%29.98 "Hg10 mi
8:50 AM50 °FSunny.10 mph88%29.98 "Hg10 mi
8:20 AM50 °FSunny.10 mph88%29.98 "Hg10 mi
7:50 AM50 °FClear.10 mph94%29.98 "Hg4 mi
7:20 AM48 °FClear.12 mph94%29.95 "Hg4 mi
6:50 AM45 °FClear.8 mph100%29.95 "Hg4 mi
6:20 AM45 °FFog.9 mph100%29.95 "Hg2 mi
5:50 AM45 °FFog.6 mph100%29.95 "Hg2 mi
5:20 AM43 °FFog.6 mph93%29.95 "Hg2 mi
4:50 AM43 °FFog.5 mph100%29.92 "Hg3 mi
4:20 AM45 °FClear.5 mph100%29.95 "Hg4 mi
3:50 AM46 °FHaze.5 mph93%29.95 "Hg3 mi
3:20 AM48 °FPassing clouds.3 mph87%29.92 "Hg5 mi
2:50 AM48 °FCool.6 mph94%29.92 "HgN/A
2:20 AM50 °FCool.6 mph94%29.92 "HgN/A
1:50 AM50 °FPassing clouds.7 mph94%29.92 "Hg4 mi
1:20 AM50 °FPassing clouds.7 mph94%29.89 "Hg6 mi
12:50 AM52 °FPartly cloudy.7 mph88%29.89 "Hg6 mi
12:20 AM50 °FPassing clouds.6 mph94%29.89 "Hg5 mi
Weather by CustomWeather, © 2014

See weather overview